owner,sensor,date,latitude,longitude,vertical_datum,mass_concentration_of_oxygen_in_sea_water,qcFlag 
DISL,ioos:station:DISL:DISL:1,2008-12-01T00:00:00Z,30.2513,-88.0778,6.348,7.98,1111122 
DISL,ioos:station:DISL:DISL:1,2008-12-01T00:30:00Z,30.2513,-88.0778,6.482,7.95,1111122 
DISL,ioos:station:DISL:DISL:1,2008-12-01T01:00:00Z,30.2513,-88.0778,6.634,7.97,1111122 
DISL,ioos:station:DISL:DISL:1,2008-12-01T01:30:00Z,30.2513,-88.0778,6.588,7.96,1111122 
DISL,ioos:station:DISL:DISL:1,2008-12-01T02:00:00Z,30.2513,-88.0778,6.608,7.95,1111122 
DISL,ioos:station:DISL:DISL:1,2008-12-01T02:30:00Z,30.2513,-88.0778,6.694,7.96,1111122 
DISL,ioos:station:DISL:DISL:1,2008-12-01T03:00:00Z,30.2513,-88.0778,6.752,7.95,1111122 
DISL,ioos:station:DISL:DISL:1,2008-12-01T03:30:00Z,30.2513,-88.0778,6.657,7.94,1111122 
DISL,ioos:station:DISL:DISL:1,2008-12-01T04:00:00Z,30.2513,-88.0778,6.738,7.95,1111122 
DISL,ioos:station:DISL:DISL:1,2008-12-01T04:30:00Z,30.2513,-88.0778,6.659,7.96,1111122 
DISL,ioos:station:DISL:DISL:1,2008-12-01T05:00:00Z,30.2513,-88.0778,6.572,7.95,1111122 
DISL,ioos:station:DISL:DISL:1,2008-12-01T05:30:00Z,30.2513,-88.0778,6.559,7.93,1111122 
DISL,ioos:station:DISL:DISL:1,2008-12-01T06:00:00Z,30.2513,-88.0778,6.549,7.93,1111122 
DISL,ioos:station:DISL:DISL:1,2008-12-01T06:30:00Z,30.2513,-88.0778,6.534,8.0,1111122 
DISL,ioos:station:DISL:DISL:1,2008-12-01T07:00:00Z,30.2513,-88.0778,6.385,7.99,1111122 
DISL,ioos:station:DISL:DISL:1,2008-12-01T07:30:00Z,30.2513,-88.0778,6.394,8.02,1111122 
DISL,ioos:station:DISL:DISL:1,2008-12-01T08:00:00Z,30.2513,-88.0778,6.377,8.02,1111122 
DISL,ioos:station:DISL:DISL:1,2008-12-01T08:30:00Z,30.2513,-88.0778,6.375,8.05,1111122 
DISL,ioos:station:DISL:DISL:1,2008-12-01T09:00:00Z,30.2513,-88.0778,6.121,8.05,1111122 
DISL,ioos:station:DISL:DISL:1,2008-12-01T09:30:00Z,30.2513,-88.0778,6.085,8.04,1111122 
DISL,ioos:station:DISL:DISL:1,2008-12-01T10:00:00Z,30.2513,-88.0778,5.939,8.07,1111122 
DISL,ioos:station:DISL:DISL:1,2008-12-01T10:30:00Z,30.2513,-88.0778,5.877,8.08,1111122 
DISL,ioos:station:DISL:DISL:1,2008-12-01T11:00:00Z,30.2513,-88.0778,5.832,8.1,1111122 
DISL,ioos:station:DISL:DISL:1,2008-12-01T11:30:00Z,30.2513,-88.0778,5.838,8.12,1111122 
DISL,ioos:station:DISL:DISL:1,2008-12-01T12:00:00Z,30.2513,-88.0778,5.849,8.17,1111122 
DISL,ioos:station:DISL:DISL:1,2008-12-01T12:30:00Z,30.2513,-88.0778,5.747,8.19,1111122 
DISL,ioos:station:DISL:DISL:1,2008-12-01T13:00:00Z,30.2513,-88.0778,5.647,8.13,1111122 
DISL,ioos:station:DISL:DISL:1,2008-12-01T13:30:00Z,30.2513,-88.0778,5.556,8.16,1111122 
DISL,ioos:station:DISL:DISL:1,2008-12-01T14:00:00Z,30.2513,-88.0778,5.371,8.18,1111122 
DISL,ioos:station:DISL:DISL:1,2008-12-01T14:30:00Z,30.2513,-88.0778,5.347,8.23,1111122 
DISL,ioos:station:DISL:DISL:1,2008-12-01T15:00:00Z,30.2513,-88.0778,5.25,8.26,1111122 
DISL,ioos:station:DISL:DISL:1,2008-12-01T15:30:00Z,30.2513,-88.0778,5.195,8.28,1111122 
DISL,ioos:station:DISL:DISL:1,2008-12-01T16:00:00Z,30.2513,-88.0778,5.228,8.32,1111122 
DISL,ioos:station:DISL:DISL:1,2008-12-01T16:30:00Z,30.2513,-88.0778,5.147,8.37,1111122 
DISL,ioos:station:DISL:DISL:1,2008-12-01T17:00:00Z,30.2513,-88.0778,5.113,8.48,1111122 
DISL,ioos:station:DISL:DISL:1,2008-12-01T17:30:00Z,30.2513,-88.0778,5.108,8.5,1111122 
DISL,ioos:station:DISL:DISL:1,2008-12-01T18:00:00Z,30.2513,-88.0778,5.113,8.48,1111122 
DISL,ioos:station:DISL:DISL:1,2008-12-01T18:30:00Z,30.2513,-88.0778,5.092,8.65,1111122 
DISL,ioos:station:DISL:DISL:1,2008-12-01T19:00:00Z,30.2513,-88.0778,5.154,8.66,1111122 
DISL,ioos:station:DISL:DISL:1,2008-12-01T19:30:00Z,30.2513,-88.0778,5.108,8.76,1111122 
DISL,ioos:station:DISL:DISL:1,2008-12-01T20:00:00Z,30.2513,-88.0778,5.204,8.61,1111122 
DISL,ioos:station:DISL:DISL:1,2008-12-01T20:30:00Z,30.2513,-88.0778,5.191,8.74,1111122 
DISL,ioos:station:DISL:DISL:1,2008-12-01T21:00:00Z,30.2513,-88.0778,5.295,8.64,1111122 
DISL,ioos:station:DISL:DISL:1,2008-12-01T21:30:00Z,30.2513,-88.0778,5.377,8.67,1111122 
DISL,ioos:station:DISL:DISL:1,2008-12-01T22:00:00Z,30.2513,-88.0778,5.369,8.79,1111122 
DISL,ioos:station:DISL:DISL:1,2008-12-01T22:30:00Z,30.2513,-88.0778,5.494,8.76,1111122 
DISL,ioos:station:DISL:DISL:1,2008-12-01T23:00:00Z,30.2513,-88.0778,5.53,8.8,1111122 
DISL,ioos:station:DISL:DISL:1,2008-12-01T23:30:00Z,30.2513,-88.0778,5.663,8.92,1111122 
DISL,ioos:station:DISL:DISL:1,2008-12-02T00:00:00Z,30.2513,-88.0778,5.735,8.89,1111122 
DISL,ioos:station:DISL:DISL:1,2008-12-02T00:30:00Z,30.2513,-88.0778,6.155,8.84,1111122 
DISL,ioos:station:DISL:DISL:1,2008-12-02T01:00:00Z,30.2513,-88.0778,5.889,8.85,1111122 
DISL,ioos:station:DISL:DISL:1,2008-12-02T01:30:00Z,30.2513,-88.0778,5.921,8.88,1111122 
DISL,ioos:station:DISL:DISL:1,2008-12-02T02:00:00Z,30.2513,-88.0778,5.876,8.82,1111122 
DISL,ioos:station:DISL:DISL:1,2008-12-02T02:30:00Z,30.2513,-88.0778,5.846,8.73,1111122 
DISL,ioos:station:DISL:DISL:1,2008-12-02T03:00:00Z,30.2513,-88.0778,5.86,8.67,1111122 
DISL,ioos:station:DISL:DISL:1,2008-12-02T03:30:00Z,30.2513,-88.0778,5.843,8.61,1111122 
DISL,ioos:station:DISL:DISL:1,2008-12-02T04:00:00Z,30.2513,-88.0778,5.813,8.59,1111122 
DISL,ioos:station:DISL:DISL:1,2008-12-02T04:30:00Z,30.2513,-88.0778,5.836,8.58,1111122 
DISL,ioos:station:DISL:DISL:1,2008-12-02T05:00:00Z,30.2513,-88.0778,5.884,8.56,1111122 
DISL,ioos:station:DISL:DISL:1,2008-12-02T05:30:00Z,30.2513,-88.0778,5.836,8.55,1111122 
DISL,ioos:station:DISL:DISL:1,2008-12-02T06:00:00Z,30.2513,-88.0778,5.822,8.54,1111122 
DISL,ioos:station:DISL:DISL:1,2008-12-02T06:30:00Z,30.2513,-88.0778,5.863,8.54,1111122 
DISL,ioos:station:DISL:DISL:1,2008-12-02T07:00:00Z,30.2513,-88.0778,5.873,8.53,1111122 
DISL,ioos:station:DISL:DISL:1,2008-12-02T07:30:00Z,30.2513,-88.0778,5.816,8.53,1111122 
DISL,ioos:station:DISL:DISL:1,2008-12-02T08:00:00Z,30.2513,-88.0778,5.645,8.55,1111122 
DISL,ioos:station:DISL:DISL:1,2008-12-02T08:30:00Z,30.2513,-88.0778,5.657,8.56,1111122 
DISL,ioos:station:DISL:DISL:1,2008-12-02T09:00:00Z,30.2513,-88.0778,5.657,8.59,1111122 
DISL,ioos:station:DISL:DISL:1,2008-12-02T09:30:00Z,30.2513,-88.0778,5.612,8.57,1111122 
DISL,ioos:station:DISL:DISL:1,2008-12-02T10:00:00Z,30.2513,-88.0778,5.537,8.58,1111122 
DISL,ioos:station:DISL:DISL:1,2008-12-02T10:30:00Z,30.2513,-88.0778,5.451,8.58,1111122 
DISL,ioos:station:DISL:DISL:1,2008-12-02T11:00:00Z,30.2513,-88.0778,5.326,8.57,1111122 
DISL,ioos:station:DISL:DISL:1,2008-12-02T11:30:00Z,30.2513,-88.0778,5.195,8.58,1111122 
DISL,ioos:station:DISL:DISL:1,2008-12-02T12:00:00Z,30.2513,-88.0778,5.101,8.57,1111122 
DISL,ioos:station:DISL:DISL:1,2008-12-02T12:30:00Z,30.2513,-88.0778,5.083,8.69,1111122 
DISL,ioos:station:DISL:DISL:1,2008-12-02T13:00:00Z,30.2513,-88.0778,5.005,8.7,1111122 
DISL,ioos:station:DISL:DISL:1,2008-12-02T13:30:00Z,30.2513,-88.0778,4.955,8.49,1111122 
DISL,ioos:station:DISL:DISL:1,2008-12-02T14:00:00Z,30.2513,-88.0778,4.918,8.49,1111122 
DISL,ioos:station:DISL:DISL:1,2008-12-02T14:30:00Z,30.2513,-88.0778,4.75,8.49,1111122 
DISL,ioos:station:DISL:DISL:1,2008-12-02T15:00:00Z,30.2513,-88.0778,4.726,8.5,1111122 
DISL,ioos:station:DISL:DISL:1,2008-12-02T15:30:00Z,30.2513,-88.0778,4.7,8.55,1111122 
DISL,ioos:station:DISL:DISL:1,2008-12-02T16:00:00Z,30.2513,-88.0778,4.676,8.56,1111122 
DISL,ioos:station:DISL:DISL:1,2008-12-02T16:30:00Z,30.2513,-88.0778,4.674,8.87,1111122 
DISL,ioos:station:DISL:DISL:1,2008-12-02T17:00:00Z,30.2513,-88.0778,4.648,9.15,1111122 
DISL,ioos:station:DISL:DISL:1,2008-12-02T17:30:00Z,30.2513,-88.0778,4.629,9.21,1111122 
DISL,ioos:station:DISL:DISL:1,2008-12-02T18:00:00Z,30.2513,-88.0778,4.657,9.22,1111122 
DISL,ioos:station:DISL:DISL:1,2008-12-02T18:30:00Z,30.2513,-88.0778,4.629,9.26,1111122 
DISL,ioos:station:DISL:DISL:1,2008-12-02T19:00:00Z,30.2513,-88.0778,4.642,9.2,1111122 
DISL,ioos:station:DISL:DISL:1,2008-12-02T19:30:00Z,30.2513,-88.0778,4.659,9.13,1111122 
DISL,ioos:station:DISL:DISL:1,2008-12-02T20:00:00Z,30.2513,-88.0778,4.675,9.07,1111122 
DISL,ioos:station:DISL:DISL:1,2008-12-02T20:30:00Z,30.2513,-88.0778,4.757,9.1,1111122 
DISL,ioos:station:DISL:DISL:1,2008-12-02T21:00:00Z,30.2513,-88.0778,4.759,9.06,1111122 
DISL,ioos:station:DISL:DISL:1,2008-12-02T21:30:00Z,30.2513,-88.0778,4.798,9.13,1111122 
DISL,ioos:station:DISL:DISL:1,2008-12-02T22:00:00Z,30.2513,-88.0778,4.835,9.29,1111122 
DISL,ioos:station:DISL:DISL:1,2008-12-02T22:30:00Z,30.2513,-88.0778,4.916,9.47,1111122 
DISL,ioos:station:DISL:DISL:1,2008-12-02T23:00:00Z,30.2513,-88.0778,5.005,9.45,1111122 
DISL,ioos:station:DISL:DISL:1,2008-12-02T23:30:00Z,30.2513,-88.0778,4.759,9.6,1111122 
DISL,ioos:station:DISL:DISL:1,2008-12-03T00:00:00Z,30.2513,-88.0778,5.207,9.68,1111122 
DISL,ioos:station:DISL:DISL:1,2008-12-03T00:30:00Z,30.2513,-88.0778,5.356,9.69,1111122 
DISL,ioos:station:DISL:DISL:1,2008-12-03T01:00:00Z,30.2513,-88.0778,5.433,9.7,1111122 
DISL,ioos:station:DISL:DISL:1,2008-12-03T01:30:00Z,30.2513,-88.0778,5.477,9.69,1111122 
DISL,ioos:station:DISL:DISL:1,2008-12-03T02:00:00Z,30.2513,-88.0778,5.549,9.69,1111122 
DISL,ioos:station:DISL:DISL:1,2008-12-03T02:30:00Z,30.2513,-88.0778,5.696,9.65,1111122 
DISL,ioos:station:DISL:DISL:1,2008-12-03T03:00:00Z,30.2513,-88.0778,5.767,9.65,1111122 
DISL,ioos:station:DISL:DISL:1,2008-12-03T03:30:00Z,30.2513,-88.0778,5.831,9.65,1111122 
DISL,ioos:station:DISL:DISL:1,2008-12-03T04:00:00Z,30.2513,-88.0778,5.889,9.67,1111122 
DISL,ioos:station:DISL:DISL:1,2008-12-03T04:30:00Z,30.2513,-88.0778,5.963,9.7,1111122 
DISL,ioos:station:DISL:DISL:1,2008-12-03T05:00:00Z,30.2513,-88.0778,6.038,9.64,1111122 
DISL,ioos:station:DISL:DISL:1,2008-12-03T05:30:00Z,30.2513,-88.0778,6.063,9.55,1111122 
DISL,ioos:station:DISL:DISL:1,2008-12-03T06:00:00Z,30.2513,-88.0778,6.069,9.45,1111122 
DISL,ioos:station:DISL:DISL:1,2008-12-03T06:30:00Z,30.2513,-88.0778,6.081,9.4,1111122 
DISL,ioos:station:DISL:DISL:1,2008-12-03T07:00:00Z,30.2513,-88.0778,6.086,9.36,1111122 
DISL,ioos:station:DISL:DISL:1,2008-12-03T07:30:00Z,30.2513,-88.0778,6.119,9.37,1111122 
DISL,ioos:station:DISL:DISL:1,2008-12-03T08:00:00Z,30.2513,-88.0778,6.075,9.28,1111122 
DISL,ioos:station:DISL:DISL:1,2008-12-03T08:30:00Z,30.2513,-88.0778,6.056,9.28,1111122 
DISL,ioos:station:DISL:DISL:1,2008-12-03T09:00:00Z,30.2513,-88.0778,6.016,9.19,1111122 
DISL,ioos:station:DISL:DISL:1,2008-12-03T09:30:00Z,30.2513,-88.0778,5.982,9.12,1111122 
DISL,ioos:station:DISL:DISL:1,2008-12-03T10:00:00Z,30.2513,-88.0778,5.909,9.07,1111122 
DISL,ioos:station:DISL:DISL:1,2008-12-03T10:30:00Z,30.2513,-88.0778,5.815,9.11,1111122 
DISL,ioos:station:DISL:DISL:1,2008-12-03T11:00:00Z,30.2513,-88.0778,5.757,9.03,1111122 
DISL,ioos:station:DISL:DISL:1,2008-12-03T11:30:00Z,30.2513,-88.0778,5.668,8.77,1111122 
DISL,ioos:station:DISL:DISL:1,2008-12-03T12:00:00Z,30.2513,-88.0778,5.631,8.74,1111122 
DISL,ioos:station:DISL:DISL:1,2008-12-03T12:30:00Z,30.2513,-88.0778,5.559,8.72,1111122 
DISL,ioos:station:DISL:DISL:1,2008-12-03T13:00:00Z,30.2513,-88.0778,5.494,8.85,1111122 
DISL,ioos:station:DISL:DISL:1,2008-12-03T13:30:00Z,30.2513,-88.0778,5.438,8.97,1111122 
DISL,ioos:station:DISL:DISL:1,2008-12-03T14:00:00Z,30.2513,-88.0778,5.374,9.06,1111122 
DISL,ioos:station:DISL:DISL:1,2008-12-03T14:30:00Z,30.2513,-88.0778,5.332,9.13,1111122 
DISL,ioos:station:DISL:DISL:1,2008-12-03T15:00:00Z,30.2513,-88.0778,5.25,9.2,1111122 
DISL,ioos:station:DISL:DISL:1,2008-12-03T15:30:00Z,30.2513,-88.0778,5.227,9.27,1111122 
DISL,ioos:station:DISL:DISL:1,2008-12-03T16:00:00Z,30.2513,-88.0778,5.184,9.3,1111122 
DISL,ioos:station:DISL:DISL:1,2008-12-03T16:30:00Z,30.2513,-88.0778,5.165,9.38,1111122 
DISL,ioos:station:DISL:DISL:1,2008-12-03T17:00:00Z,30.2513,-88.0778,5.133,9.42,1111122 
DISL,ioos:station:DISL:DISL:1,2008-12-03T17:30:00Z,30.2513,-88.0778,5.148,9.53,1111122 
DISL,ioos:station:DISL:DISL:1,2008-12-03T18:00:00Z,30.2513,-88.0778,5.087,9.57,1111122 
DISL,ioos:station:DISL:DISL:1,2008-12-03T18:30:00Z,30.2513,-88.0778,5.092,9.58,1111122 
DISL,ioos:station:DISL:DISL:1,2008-12-03T19:00:00Z,30.2513,-88.0778,5.136,9.54,1111122 
DISL,ioos:station:DISL:DISL:1,2008-12-03T19:30:00Z,30.2513,-88.0778,5.193,9.46,1111122 
DISL,ioos:station:DISL:DISL:1,2008-12-03T20:00:00Z,30.2513,-88.0778,5.219,9.47,1111122 
DISL,ioos:station:DISL:DISL:1,2008-12-03T20:30:00Z,30.2513,-88.0778,5.223,9.51,1111122 
DISL,ioos:station:DISL:DISL:1,2008-12-03T21:00:00Z,30.2513,-88.0778,5.294,9.5,1111122 
DISL,ioos:station:DISL:DISL:1,2008-12-03T21:30:00Z,30.2513,-88.0778,5.321,9.47,1111122 
DISL,ioos:station:DISL:DISL:1,2008-12-03T22:00:00Z,30.2513,-88.0778,5.375,9.41,1111122 
DISL,ioos:station:DISL:DISL:1,2008-12-03T22:30:00Z,30.2513,-88.0778,5.428,9.44,1111122 
DISL,ioos:station:DISL:DISL:1,2008-12-03T23:00:00Z,30.2513,-88.0778,5.526,9.29,1111122 
DISL,ioos:station:DISL:DISL:1,2008-12-03T23:30:00Z,30.2513,-88.0778,5.587,9.51,1111122 
DISL,ioos:station:DISL:DISL:1,2008-12-04T00:00:00Z,30.2513,-88.0778,5.608,9.21,1111122 
DISL,ioos:station:DISL:DISL:1,2008-12-04T00:30:00Z,30.2513,-88.0778,5.733,9.46,1111122 
DISL,ioos:station:DISL:DISL:1,2008-12-04T01:00:00Z,30.2513,-88.0778,5.822,9.01,1111122 
DISL,ioos:station:DISL:DISL:1,2008-12-04T01:30:00Z,30.2513,-88.0778,5.903,9.3,1111122 
DISL,ioos:station:DISL:DISL:1,2008-12-04T02:00:00Z,30.2513,-88.0778,5.941,9.14,1111122 
DISL,ioos:station:DISL:DISL:1,2008-12-04T02:30:00Z,30.2513,-88.0778,6.021,9.29,1111122 
DISL,ioos:station:DISL:DISL:1,2008-12-04T03:00:00Z,30.2513,-88.0778,6.095,9.25,1111122 
DISL,ioos:station:DISL:DISL:1,2008-12-04T03:30:00Z,30.2513,-88.0778,6.192,9.28,1111122 
DISL,ioos:station:DISL:DISL:1,2008-12-04T04:00:00Z,30.2513,-88.0778,6.259,9.44,1111122 
DISL,ioos:station:DISL:DISL:1,2008-12-04T04:30:00Z,30.2513,-88.0778,6.324,9.54,1111122 
DISL,ioos:station:DISL:DISL:1,2008-12-04T05:00:00Z,30.2513,-88.0778,6.378,9.39,1111122 
DISL,ioos:station:DISL:DISL:1,2008-12-04T05:30:00Z,30.2513,-88.0778,6.428,9.37,1111122 
DISL,ioos:station:DISL:DISL:1,2008-12-04T06:00:00Z,30.2513,-88.0778,6.479,9.34,1111122 
DISL,ioos:station:DISL:DISL:1,2008-12-04T06:30:00Z,30.2513,-88.0778,6.507,9.21,1111122 
DISL,ioos:station:DISL:DISL:1,2008-12-04T07:00:00Z,30.2513,-88.0778,6.517,9.18,1111122 
DISL,ioos:station:DISL:DISL:1,2008-12-04T07:30:00Z,30.2513,-88.0778,6.487,9.08,1111122 
DISL,ioos:station:DISL:DISL:1,2008-12-04T08:00:00Z,30.2513,-88.0778,6.527,8.96,1111122 
DISL,ioos:station:DISL:DISL:1,2008-12-04T08:30:00Z,30.2513,-88.0778,6.563,9.0,1111122 
DISL,ioos:station:DISL:DISL:1,2008-12-04T09:00:00Z,30.2513,-88.0778,6.558,8.9,1111122 
DISL,ioos:station:DISL:DISL:1,2008-12-04T09:30:00Z,30.2513,-88.0778,6.573,8.84,1111122 
DISL,ioos:station:DISL:DISL:1,2008-12-04T10:00:00Z,30.2513,-88.0778,6.525,8.82,1111122 
DISL,ioos:station:DISL:DISL:1,2008-12-04T10:30:00Z,30.2513,-88.0778,6.467,8.8,1111122 
DISL,ioos:station:DISL:DISL:1,2008-12-04T11:00:00Z,30.2513,-88.0778,6.63,8.88,1111122 
DISL,ioos:station:DISL:DISL:1,2008-12-04T11:30:00Z,30.2513,-88.0778,6.314,8.9,1111122 
DISL,ioos:station:DISL:DISL:1,2008-12-04T12:00:00Z,30.2513,-88.0778,6.349,8.92,1111122 
DISL,ioos:station:DISL:DISL:1,2008-12-04T12:30:00Z,30.2513,-88.0778,6.31,8.89,1111122 
DISL,ioos:station:DISL:DISL:1,2008-12-04T13:00:00Z,30.2513,-88.0778,6.229,8.71,1111122 
DISL,ioos:station:DISL:DISL:1,2008-12-04T13:30:00Z,30.2513,-88.0778,6.185,8.54,1111122 
DISL,ioos:station:DISL:DISL:1,2008-12-04T14:00:00Z,30.2513,-88.0778,6.088,8.49,1111122 
DISL,ioos:station:DISL:DISL:1,2008-12-04T14:30:00Z,30.2513,-88.0778,6.108,8.55,1111122 
DISL,ioos:station:DISL:DISL:1,2008-12-04T15:00:00Z,30.2513,-88.0778,6.078,8.76,1111122 
DISL,ioos:station:DISL:DISL:1,2008-12-04T15:30:00Z,30.2513,-88.0778,5.962,8.84,1111122 
DISL,ioos:station:DISL:DISL:1,2008-12-04T16:00:00Z,30.2513,-88.0778,5.872,8.93,1111122 
DISL,ioos:station:DISL:DISL:1,2008-12-04T16:30:00Z,30.2513,-88.0778,5.772,8.83,1111122 
DISL,ioos:station:DISL:DISL:1,2008-12-04T17:00:00Z,30.2513,-88.0778,5.701,8.79,1111122 
DISL,ioos:station:DISL:DISL:1,2008-12-04T17:30:00Z,30.2513,-88.0778,5.662,9.06,1111122 
DISL,ioos:station:DISL:DISL:1,2008-12-04T18:00:00Z,30.2513,-88.0778,5.694,9.17,1111122 
DISL,ioos:station:DISL:DISL:1,2008-12-04T18:30:00Z,30.2513,-88.0778,5.698,9.23,1111122 
DISL,ioos:station:DISL:DISL:1,2008-12-04T19:00:00Z,30.2513,-88.0778,5.692,9.28,1111122 
DISL,ioos:station:DISL:DISL:1,2008-12-04T19:30:00Z,30.2513,-88.0778,5.631,9.35,1111122 
DISL,ioos:station:DISL:DISL:1,2008-12-04T20:00:00Z,30.2513,-88.0778,5.624,9.38,1111122 
DISL,ioos:station:DISL:DISL:1,2008-12-04T20:30:00Z,30.2513,-88.0778,5.569,9.42,1111122 
DISL,ioos:station:DISL:DISL:1,2008-12-04T21:00:00Z,30.2513,-88.0778,5.624,9.42,1111122 
DISL,ioos:station:DISL:DISL:1,2008-12-04T21:30:00Z,30.2513,-88.0778,5.635,9.4,1111122 
DISL,ioos:station:DISL:DISL:1,2008-12-04T22:00:00Z,30.2513,-88.0778,5.727,9.29,1111122 
DISL,ioos:station:DISL:DISL:1,2008-12-04T22:30:00Z,30.2513,-88.0778,5.788,9.23,1111122 
DISL,ioos:station:DISL:DISL:1,2008-12-04T23:00:00Z,30.2513,-88.0778,5.824,9.37,1111122 
DISL,ioos:station:DISL:DISL:1,2008-12-04T23:30:00Z,30.2513,-88.0778,5.877,9.26,1111122 
DISL,ioos:station:DISL:DISL:1,2008-12-05T00:00:00Z,30.2513,-88.0778,5.945,9.23,1111122 
DISL,ioos:station:DISL:DISL:1,2008-12-05T00:30:00Z,30.2513,-88.0778,5.881,9.23,1111122 
DISL,ioos:station:DISL:DISL:1,2008-12-05T01:00:00Z,30.2513,-88.0778,6.148,9.1,1111122 
DISL,ioos:station:DISL:DISL:1,2008-12-05T01:30:00Z,30.2513,-88.0778,5.717,9.03,1111122 
DISL,ioos:station:DISL:DISL:1,2008-12-05T02:00:00Z,30.2513,-88.0778,5.856,9.15,1111122 
DISL,ioos:station:DISL:DISL:1,2008-12-05T02:30:00Z,30.2513,-88.0778,6.001,9.11,1111122 
DISL,ioos:station:DISL:DISL:1,2008-12-05T03:00:00Z,30.2513,-88.0778,6.096,9.07,1111122 
DISL,ioos:station:DISL:DISL:1,2008-12-05T03:30:00Z,30.2513,-88.0778,6.244,9.04,1111122 
DISL,ioos:station:DISL:DISL:1,2008-12-05T04:00:00Z,30.2513,-88.0778,5.668,9.05,1111122 
DISL,ioos:station:DISL:DISL:1,2008-12-05T04:30:00Z,30.2513,-88.0778,5.553,9.04,1111122 
DISL,ioos:station:DISL:DISL:1,2008-12-05T05:00:00Z,30.2513,-88.0778,5.705,9.05,1111122 
DISL,ioos:station:DISL:DISL:1,2008-12-05T05:30:00Z,30.2513,-88.0778,6.03,9.09,1111122 
DISL,ioos:station:DISL:DISL:1,2008-12-05T06:00:00Z,30.2513,-88.0778,5.74,8.97,1111122 
DISL,ioos:station:DISL:DISL:1,2008-12-05T06:30:00Z,30.2513,-88.0778,5.914,8.93,1111122 
DISL,ioos:station:DISL:DISL:1,2008-12-05T07:00:00Z,30.2513,-88.0778,5.887,8.92,1111122 
DISL,ioos:station:DISL:DISL:1,2008-12-05T07:30:00Z,30.2513,-88.0778,5.418,8.95,1111122 
DISL,ioos:station:DISL:DISL:1,2008-12-05T08:00:00Z,30.2513,-88.0778,5.995,8.96,1111122 
DISL,ioos:station:DISL:DISL:1,2008-12-05T08:30:00Z,30.2513,-88.0778,5.958,8.96,1111122 
DISL,ioos:station:DISL:DISL:1,2008-12-05T09:00:00Z,30.2513,-88.0778,6.044,8.99,1111122 
DISL,ioos:station:DISL:DISL:1,2008-12-05T09:30:00Z,30.2513,-88.0778,5.761,9.15,1111122 
DISL,ioos:station:DISL:DISL:1,2008-12-05T10:00:00Z,30.2513,-88.0778,6.112,9.05,1111122 
DISL,ioos:station:DISL:DISL:1,2008-12-05T10:30:00Z,30.2513,-88.0778,5.924,8.99,1111122 
DISL,ioos:station:DISL:DISL:1,2008-12-05T11:00:00Z,30.2513,-88.0778,5.759,8.98,1111122 
DISL,ioos:station:DISL:DISL:1,2008-12-05T11:30:00Z,30.2513,-88.0778,5.828,8.96,1111122 
DISL,ioos:station:DISL:DISL:1,2008-12-05T12:00:00Z,30.2513,-88.0778,5.512,9.16,1111122 
DISL,ioos:station:DISL:DISL:1,2008-12-05T12:30:00Z,30.2513,-88.0778,5.903,9.09,1111122 
DISL,ioos:station:DISL:DISL:1,2008-12-05T13:00:00Z,30.2513,-88.0778,5.007,9.08,1111122 
DISL,ioos:station:DISL:DISL:1,2008-12-05T13:30:00Z,30.2513,-88.0778,5.455,9.12,1111122 
DISL,ioos:station:DISL:DISL:1,2008-12-05T14:00:00Z,30.2513,-88.0778,5.181,9.14,1111122 
DISL,ioos:station:DISL:DISL:1,2008-12-05T14:30:00Z,30.2513,-88.0778,6.081,9.28,1111122 
DISL,ioos:station:DISL:DISL:1,2008-12-05T15:00:00Z,30.2513,-88.0778,6.025,9.2,1111122 
DISL,ioos:station:DISL:DISL:1,2008-12-05T15:30:00Z,30.2513,-88.0778,5.056,9.17,1111122 
DISL,ioos:station:DISL:DISL:1,2008-12-05T16:00:00Z,30.2513,-88.0778,5.752,9.29,1111122 
DISL,ioos:station:DISL:DISL:1,2008-12-05T16:30:00Z,30.2513,-88.0778,5.385,9.29,1111122 
DISL,ioos:station:DISL:DISL:1,2008-12-05T17:00:00Z,30.2513,-88.0778,5.395,9.23,1111122 
DISL,ioos:station:DISL:DISL:1,2008-12-05T17:30:00Z,30.2513,-88.0778,5.601,9.23,1111122 
DISL,ioos:station:DISL:DISL:1,2008-12-05T18:00:00Z,30.2513,-88.0778,5.401,9.34,1111122 
DISL,ioos:station:DISL:DISL:1,2008-12-05T18:30:00Z,30.2513,-88.0778,5.413,9.2,1111122 
DISL,ioos:station:DISL:DISL:1,2008-12-05T19:00:00Z,30.2513,-88.0778,5.497,9.26,1111122 
DISL,ioos:station:DISL:DISL:1,2008-12-05T19:30:00Z,30.2513,-88.0778,5.553,9.3,1111122 
DISL,ioos:station:DISL:DISL:1,2008-12-05T20:00:00Z,30.2513,-88.0778,5.652,9.33,1111122 
DISL,ioos:station:DISL:DISL:1,2008-12-05T20:30:00Z,30.2513,-88.0778,5.653,9.36,1111122 
DISL,ioos:station:DISL:DISL:1,2008-12-05T21:00:00Z,30.2513,-88.0778,5.671,9.4,1111122 
DISL,ioos:station:DISL:DISL:1,2008-12-05T21:30:00Z,30.2513,-88.0778,5.735,9.43,1111122 
DISL,ioos:station:DISL:DISL:1,2008-12-05T22:00:00Z,30.2513,-88.0778,5.72,9.45,1111122 
DISL,ioos:station:DISL:DISL:1,2008-12-05T22:30:00Z,30.2513,-88.0778,5.771,9.5,1111122 
DISL,ioos:station:DISL:DISL:1,2008-12-05T23:00:00Z,30.2513,-88.0778,5.798,9.62,1111122 
DISL,ioos:station:DISL:DISL:1,2008-12-05T23:30:00Z,30.2513,-88.0778,5.987,9.53,1111122 
DISL,ioos:station:DISL:DISL:1,2008-12-06T00:00:00Z,30.2513,-88.0778,5.866,9.52,1111122 
DISL,ioos:station:DISL:DISL:1,2008-12-06T00:30:00Z,30.2513,-88.0778,5.898,9.24,1111122 
DISL,ioos:station:DISL:DISL:1,2008-12-06T01:00:00Z,30.2513,-88.0778,5.957,9.17,1111122 
DISL,ioos:station:DISL:DISL:1,2008-12-06T01:30:00Z,30.2513,-88.0778,5.935,9.09,1111122 
DISL,ioos:station:DISL:DISL:1,2008-12-06T02:00:00Z,30.2513,-88.0778,5.9,9.13,1111122 
DISL,ioos:station:DISL:DISL:1,2008-12-06T02:30:00Z,30.2513,-88.0778,5.862,9.1,1111122 
DISL,ioos:station:DISL:DISL:1,2008-12-06T03:00:00Z,30.2513,-88.0778,6.009,9.05,1111122 
DISL,ioos:station:DISL:DISL:1,2008-12-06T03:30:00Z,30.2513,-88.0778,5.89,9.21,1111122 
DISL,ioos:station:DISL:DISL:1,2008-12-06T04:00:00Z,30.2513,-88.0778,5.966,9.17,1111122 
DISL,ioos:station:DISL:DISL:1,2008-12-06T04:30:00Z,30.2513,-88.0778,5.678,9.14,1111122 
DISL,ioos:station:DISL:DISL:1,2008-12-06T05:00:00Z,30.2513,-88.0778,6.097,9.16,1111122 
DISL,ioos:station:DISL:DISL:1,2008-12-06T05:30:00Z,30.2513,-88.0778,6.047,9.18,1111122 
DISL,ioos:station:DISL:DISL:1,2008-12-06T06:00:00Z,30.2513,-88.0778,6.086,9.1,1111122 
DISL,ioos:station:DISL:DISL:1,2008-12-06T06:30:00Z,30.2513,-88.0778,5.987,8.67,1111122 
DISL,ioos:station:DISL:DISL:1,2008-12-06T07:00:00Z,30.2513,-88.0778,6.08,9.08,1111122 
DISL,ioos:station:DISL:DISL:1,2008-12-06T07:30:00Z,30.2513,-88.0778,6.061,9.07,1111122 
DISL,ioos:station:DISL:DISL:1,2008-12-06T08:00:00Z,30.2513,-88.0778,6.002,8.99,1111122 
DISL,ioos:station:DISL:DISL:1,2008-12-06T08:30:00Z,30.2513,-88.0778,6.002,9.04,1111122 
DISL,ioos:station:DISL:DISL:1,2008-12-06T09:00:00Z,30.2513,-88.0778,6.014,9.1,1111122 
DISL,ioos:station:DISL:DISL:1,2008-12-06T09:30:00Z,30.2513,-88.0778,6.024,9.09,1111122 
DISL,ioos:station:DISL:DISL:1,2008-12-06T10:00:00Z,30.2513,-88.0778,5.991,9.09,1111122 
DISL,ioos:station:DISL:DISL:1,2008-12-06T10:30:00Z,30.2513,-88.0778,6.002,9.06,1111122 
DISL,ioos:station:DISL:DISL:1,2008-12-06T11:00:00Z,30.2513,-88.0778,6.017,9.06,1111122 
DISL,ioos:station:DISL:DISL:1,2008-12-06T11:30:00Z,30.2513,-88.0778,5.986,8.98,1111122 
DISL,ioos:station:DISL:DISL:1,2008-12-06T12:00:00Z,30.2513,-88.0778,5.999,8.87,1111122 
DISL,ioos:station:DISL:DISL:1,2008-12-06T12:30:00Z,30.2513,-88.0778,5.997,8.93,1111122 
DISL,ioos:station:DISL:DISL:1,2008-12-06T13:00:00Z,30.2513,-88.0778,6.048,9.0,1111122 
DISL,ioos:station:DISL:DISL:1,2008-12-06T13:30:00Z,30.2513,-88.0778,6.038,8.98,1111122 
DISL,ioos:station:DISL:DISL:1,2008-12-06T14:00:00Z,30.2513,-88.0778,5.993,9.08,1111122 
DISL,ioos:station:DISL:DISL:1,2008-12-06T14:30:00Z,30.2513,-88.0778,6.019,9.16,1111122 
DISL,ioos:station:DISL:DISL:1,2008-12-06T15:00:00Z,30.2513,-88.0778,5.995,9.19,1111122 
DISL,ioos:station:DISL:DISL:1,2008-12-06T15:30:00Z,30.2513,-88.0778,5.978,9.26,1111122 